When you browse on this site, cookies collect data to enhance your experience and personalize the content and advertising you see.
Visit our Privacy Policy to learn more. By continuing to use the site, you agree to this use of cookies and data.
  • In Germany
  • List of Countries
  • For 7 days
  • Water Temperature
  • Satellite Maps
  • Weather Map
  • Weather Widgets
  • user-avatar
    Login

    Hourly Weather Bunako-Sokolovec

    Today, 19 February, Tuesday

    Time Temperature Precipitation Wind Pressure Humidity
    00:00 -7°C° 0 mm 4 mps 754 mmHg 84%
    01:00 -8°C° 0 mm 4 mps 754 mmHg 83%
    02:00 -8°C° 0 mm 4 mps 755 mmHg 83%
    03:00 -8°C° 0 mm 3 mps 754 mmHg 83%
    04:00 -8°C° 0 mm 3 mps 755 mmHg 84%
    05:00 -9°C° 0 mm 3 mps 755 mmHg 85%
    06:00 -9°C° 0 mm 3 mps 756 mmHg 86%
    07:00 -9°C° 0 mm 3 mps 756 mmHg 86%
    08:00 -9°C° 0 mm 3 mps 757 mmHg 86%
    09:00 -9°C° 0 mm 4 mps 757 mmHg 87%
    10:00 -7°C° 0 mm 3 mps 758 mmHg 84%
    11:00 -6°C° 0 mm 3 mps 758 mmHg 82%
    12:00 -5°C° 0 mm 3 mps 758 mmHg 79%
    13:00 -4°C° 0 mm 2 mps 758 mmHg 78%
    14:00 -4°C° 0 mm 2 mps 758 mmHg 77%
    15:00 -3°C° 0 mm 2 mps 758 mmHg 75%
    16:00 -2°C° 0 mm 1 mps 758 mmHg 78%
    17:00 -3°C° 0 mm 1 mps 758 mmHg 81%
    18:00 -4°C° 0 mm 1 mps 758 mmHg 84%
    19:00 -4°C° 0 mm 1 mps 758 mmHg 83%
    20:00 -6°C° 0 mm 0 mps 758 mmHg 83%
    21:00 -6°C° 0 mm 0 mps 758 mmHg 83%
    22:00 -6°C° 0 mm 1 mps 758 mmHg 81%
    23:00 -6°C° 0 mm 1 mps 758 mmHg 80%

    Tomorrow, 20 February, Wednesday

    Time Temperature Precipitation Wind Pressure Humidity
    00:00 -6°C° 0 mm 1 mps 757 mmHg 79%
    01:00 -6°C° 0 mm 1 mps 757 mmHg 78%
    02:00 -6°C° 0 mm 2 mps 757 mmHg 78%
    03:00 -6°C° 0 mm 2 mps 756 mmHg 77%
    04:00 -6°C° 0 mm 2 mps 756 mmHg 76%
    05:00 -6°C° 0 mm 2 mps 756 mmHg 76%
    06:00 -6°C° 0 mm 2 mps 755 mmHg 75%
    07:00 -5°C° 0 mm 2 mps 755 mmHg 75%
    08:00 -5°C° 0 mm 2 mps 755 mmHg 75%
    09:00 -5°C° 0 mm 3 mps 754 mmHg 75%
    10:00 -4°C° 0 mm 3 mps 754 mmHg 74%
    11:00 -1°C° 0 mm 3 mps 754 mmHg 73%
    12:00 -1°C° 0 mm 4 mps 753 mmHg 72%
    13:00 0°C° 0 mm 4 mps 753 mmHg 74%
    14:00 0°C° 0 mm 4 mps 752 mmHg 77%
    15:00 0°C° 0 mm 4 mps 752 mmHg 79%
    16:00 0°C° 0 mm 4 mps 751 mmHg 81%
    17:00 -1°C° 0 mm 4 mps 751 mmHg 82%
    18:00 -2°C° 0 mm 4 mps 751 mmHg 84%
    19:00 -2°C° 0 mm 4 mps 751 mmHg 84%
    20:00 -3°C° 0 mm 4 mps 751 mmHg 85%
    21:00 -3°C° 0 mm 4 mps 750 mmHg 85%
    22:00 -3°C° 0 mm 4 mps 750 mmHg 85%
    23:00 -3°C° 0 mm 4 mps 750 mmHg 85%

    Day after tomorrow, 21 February, Thursday

    Time Temperature Precipitation Wind Pressure Humidity
    00:00 -2°C° 0 mm 4 mps 749 mmHg 85%
    01:00 -2°C° 0 mm 4 mps 749 mmHg 87%
    02:00 -1°C° 0 mm 4 mps 749 mmHg 88%
    03:00 -1°C° 0 mm 4 mps 749 mmHg 90%
    04:00 -1°C° 0 mm 5 mps 748 mmHg 92%
    05:00 -1°C° 0 mm 5 mps 748 mmHg 94%
    06:00 0°C° 0 mm 5 mps 748 mmHg 96%
    07:00 0°C° 0.3 mm 5 mps 748 mmHg 97%
    08:00 0°C° 0.3 mm 5 mps 748 mmHg 98%
    09:00 0°C° 0.3 mm 5 mps 747 mmHg 98%
    10:00 0°C° 0.1 mm 4 mps 747 mmHg 97%
    11:00 0°C° 0.1 mm 4 mps 747 mmHg 95%
    12:00 +1°C° 0.1 mm 4 mps 746 mmHg 94%
    13:00 +1°C° 0.1 mm 5 mps 746 mmHg 89%
    14:00 +1°C° 0.1 mm 5 mps 746 mmHg 84%
    15:00 +2°C° 0.1 mm 6 mps 746 mmHg 79%
    16:00 +1°C° 0.2 mm 6 mps 746 mmHg 80%
    17:00 -1°C° 0.2 mm 6 mps 746 mmHg 81%
    18:00 -2°C° 0.2 mm 6 mps 746 mmHg 82%
    19:00 -3°C° 0 mm 6 mps 747 mmHg 79%
    20:00 -4°C° 0 mm 6 mps 747 mmHg 77%
    21:00 -5°C° 0 mm 6 mps 748 mmHg 75%
    22:00 -6°C° 0 mm 6 mps 748 mmHg 75%
    23:00 -6°C° 0 mm 5 mps 748 mmHg 75%

    22 February, Friday

    Time Temperature Precipitation Wind Pressure Humidity
    00:00 -6°C° 0 mm 5 mps 749 mmHg 76%
    01:00 -7°C° 0 mm 5 mps 749 mmHg 75%
    02:00 -7°C° 0 mm 5 mps 749 mmHg 74%
    03:00 -7°C° 0 mm 5 mps 749 mmHg 73%
    04:00 -8°C° 0 mm 5 mps 749 mmHg 72%
    05:00 -8°C° 0 mm 5 mps 749 mmHg 72%
    06:00 -8°C° 0 mm 5 mps 749 mmHg 72%
    07:00 -7°C° 0 mm 5 mps 749 mmHg 71%
    08:00 -7°C° 0 mm 5 mps 749 mmHg 71%
    09:00 -7°C° 0 mm 5 mps 749 mmHg 70%
    10:00 -6°C° 0 mm 5 mps 749 mmHg 69%
    11:00 -5°C° 0 mm 5 mps 749 mmHg 67%
    12:00 -5°C° 0 mm 5 mps 749 mmHg 66%
    13:00 -4°C° 0.1 mm 4 mps 749 mmHg 70%
    14:00 -4°C° 0.1 mm 4 mps 748 mmHg 74%
    15:00 -5°C° 0.1 mm 3 mps 748 mmHg 79%
    16:00 -5°C° 0.5 mm 3 mps 748 mmHg 82%
    17:00 -6°C° 0.5 mm 3 mps 748 mmHg 86%
    18:00 -6°C° 0.5 mm 3 mps 748 mmHg 90%
    19:00 -8°C° 0.4 mm 5 mps 749 mmHg 90%
    20:00 -10°C° 0.4 mm 6 mps 749 mmHg 89%
    21:00 -11°C° 0.4 mm 7 mps 750 mmHg 88%
    22:00 -12°C° 0.3 mm 7 mps 750 mmHg 87%
    23:00 -12°C° 0.3 mm 6 mps 750 mmHg 86%

    23 February, Saturday

    Time Temperature Precipitation Wind Pressure Humidity
    00:00 -14°C° 0.3 mm 6 mps 751 mmHg 85%
    01:00 -14°C° 0.2 mm 6 mps 751 mmHg 84%
    02:00 -14°C° 0.2 mm 6 mps 751 mmHg 84%
    03:00 -14°C° 0.2 mm 6 mps 751 mmHg 83%
    04:00 -14°C° 0.1 mm 6 mps 752 mmHg 83%
    05:00 -14°C° 0.1 mm 6 mps 752 mmHg 83%
    06:00 -15°C° 0.1 mm 6 mps 752 mmHg 83%
    07:00 -14°C° 0.1 mm 6 mps 752 mmHg 83%
    08:00 -14°C° 0.1 mm 6 mps 753 mmHg 83%
    09:00 -14°C° 0.1 mm 6 mps 753 mmHg 83%
    10:00 -14°C° 0.1 mm 6 mps 754 mmHg 82%
    11:00 -12°C° 0.1 mm 6 mps 754 mmHg 81%
    12:00 -12°C° 0.1 mm 6 mps 754 mmHg 80%
    13:00 -12°C° 0 mm 6 mps 754 mmHg 80%
    14:00 -12°C° 0 mm 6 mps 755 mmHg 80%
    15:00 -11°C° 0 mm 6 mps 755 mmHg 80%
    16:00 -12°C° 0 mm 5 mps 755 mmHg 81%
    17:00 -12°C° 0 mm 5 mps 755 mmHg 82%
    18:00 -12°C° 0 mm 5 mps 755 mmHg 84%
    19:00 -13°C° 0 mm 5 mps 756 mmHg 85%
    20:00 -13°C° 0 mm 5 mps 756 mmHg 86%
    21:00 -12°C° 0 mm 4 mps 756 mmHg 86%
    22:00 -14°C° 0 mm 4 mps 756 mmHg 87%
    23:00 -14°C° 0 mm 4 mps 756 mmHg 88%

    24 February, Sunday

    Time Temperature Precipitation Wind Pressure Humidity
    00:00 -14°C° 0 mm 4 mps 756 mmHg 89%
    01:00 -14°C° 0 mm 4 mps 756 mmHg 89%
    02:00 -14°C° 0 mm 4 mps 756 mmHg 89%
    03:00 -15°C° 0 mm 4 mps 756 mmHg 89%
    04:00 -15°C° 0 mm 4 mps 756 mmHg 89%
    05:00 -13°C° 0 mm 3 mps 756 mmHg 89%
    06:00 -13°C° 0 mm 3 mps 756 mmHg 89%
    07:00 -13°C° 0 mm 3 mps 756 mmHg 89%
    08:00 -14°C° 0 mm 4 mps 756 mmHg 89%
    09:00 -14°C° 0 mm 4 mps 756 mmHg 88%
    10:00 -12°C° 0 mm 4 mps 757 mmHg 87%
    11:00 -10°C° 0 mm 3 mps 757 mmHg 87%
    12:00 -9°C° 0 mm 3 mps 757 mmHg 86%
    13:00 -9°C° 0 mm 3 mps 757 mmHg 85%
    14:00 -9°C° 0 mm 3 mps 756 mmHg 85%
    15:00 -8°C° 0 mm 3 mps 756 mmHg 84%
    16:00 -9°C° 0 mm 3 mps 756 mmHg 85%
    17:00 -9°C° 0 mm 3 mps 756 mmHg 87%
    18:00 -9°C° 0 mm 3 mps 757 mmHg 88%
    19:00 -10°C° 0 mm 3 mps 757 mmHg 89%
    20:00 -10°C° 0 mm 3 mps 757 mmHg 90%
    21:00 -10°C° 0 mm 3 mps 757 mmHg 90%
    22:00 -9°C° 0.1 mm 3 mps 757 mmHg 91%
    23:00 -9°C° 0.1 mm 3 mps 757 mmHg 91%
    Show more